This demonstration page uses our WeatherBlox Daily Observations layout. Learn more.

Left ArrowRight Arrow

Hourly Observations for September 22, 2019

Temp ( °F °C ) Dew Point ( °F °C ) Humidity (%) Winds ( mph kmh ) Pressure ( in mb ) Visibility ( mi km ) Precip ( " mm )
12:15 am 00:15 Clear 72 22 66 19 83 83 Calm 30.20 1023 N/A 0.00 0.00
12:35 am 00:35 undefined 68 20 64 18 88 88 W 3 6 30.20 1023 N/A 0.00 0.00
12:55 am 00:55 undefined 68 20 66 19 94 94 Calm 30.20 1023 N/A 0.00 0.00
1:15 am 01:15 undefined 66 19 64 18 94 94 W 6 9 30.20 1023 N/A 0.00 0.00
1:35 am 01:35 undefined 68 20 66 19 94 94 Calm 30.19 1022 N/A 0.00 0.00
1:55 am 01:55 Clear 68 20 66 19 94 94 Calm 30.19 1022 10 16 0.00 0.00
2:15 am 02:15 Clear 66 19 64 18 94 94 Calm 30.18 1022 10 16 0.00 0.00
2:35 am 02:35 Clear 66 19 64 18 94 94 Calm 30.17 1022 10 16 0.00 0.00
2:55 am 02:55 Clear 66 19 64 18 94 94 Calm 30.17 1022 10 16 0.00 0.00
3:15 am 03:15 Clear 64 18 64 18 100 100 Calm 30.17 1022 10 16 0.00 0.00
3:35 am 03:35 Clear 64 18 64 18 100 100 Calm 30.16 1021 10 16 0.00 0.00
3:55 am 03:55 Clear 64 18 64 18 100 100 Calm 30.16 1021 10 16 0.00 0.00
4:15 am 04:15 Clear 64 18 64 18 100 100 Calm 30.16 1021 10 16 0.00 0.00
4:35 am 04:35 Clear 63 17 63 17 100 100 Calm 30.17 1022 10 16 0.00 0.00
4:55 am 04:55 Clear 63 17 63 17 100 100 Calm 30.17 1022 10 16 0.00 0.00
5:15 am 05:15 Clear 63 17 63 17 100 100 Calm 30.16 1021 10 16 0.00 0.00
5:35 am 05:35 Clear 61 16 61 16 100 100 Calm 30.17 1022 10 16 0.00 0.00
5:55 am 05:55 Clear 61 16 61 16 100 100 Calm 30.17 1022 10 16 0.00 0.00
6:15 am 06:15 Clear 61 16 61 16 100 100 Calm 30.18 1022 10 16 0.00 0.00
6:35 am 06:35 Clear 61 16 61 16 100 100 Calm 30.18 1022 10 16 0.00 0.00
6:55 am 06:55 Clear 61 16 61 16 100 100 Calm 30.18 1022 10 16 0.00 0.00
7:15 am 07:15 Sunny 59 15 59 15 100 100 Calm 30.18 1022 7 11 0.00 0.00
7:35 am 07:35 Sunny 61 16 61 16 100 100 Calm 30.18 1022 10 16 0.00 0.00
7:55 am 07:55 Sunny 63 17 63 17 100 100 Calm 30.18 1022 10 16 0.00 0.00
8:15 am 08:15 Sunny 66 19 64 18 94 94 Calm 30.18 1022 10 16 0.00 0.00
8:35 am 08:35 Sunny 68 20 64 18 88 88 Calm 30.19 1022 10 16 0.00 0.00
8:55 am 08:55 Sunny 68 20 64 18 88 88 Calm 30.19 1022 10 16 0.00 0.00
9:15 am 09:15 Sunny 70 21 64 18 83 83 Calm 30.19 1022 10 16 0.00 0.00
9:35 am 09:35 Sunny 72 22 64 18 78 78 Calm 30.19 1022 10 16 0.00 0.00
9:55 am 09:55 Sunny 73 23 64 18 74 74 Calm 30.18 1022 10 16 0.00 0.00
10:15 am 10:15 Sunny 77 25 64 18 65 65 Calm 30.17 1022 N/A 0.00 0.00
10:35 am 10:35 Sunny 79 26 66 19 65 65 Calm 30.17 1022 N/A 0.00 0.00
10:55 am 10:55 Sunny 79 26 66 19 65 65 Calm 30.17 1022 N/A 0.00 0.00
11:15 am 11:15 Sunny 79 26 66 19 65 65 Calm 30.17 1022 N/A 0.00 0.00
11:35 am 11:35 Sunny 82 28 66 19 58 58 Calm 30.16 1021 10 16 0.00 0.00
11:55 am 11:55 Sunny 82 28 66 19 58 58 Calm 30.15 1021 10 16 0.00 0.00
12:15 pm 12:15 Sunny 84 29 66 19 55 55 NNE 3 6 30.14 1021 10 16 0.00 0.00
12:35 pm 12:35 Sunny 84 29 66 19 55 55 Calm 30.14 1021 10 16 0.00 0.00
12:55 pm 12:55 Sunny 86 30 66 19 52 52 ENE 5 7 30.12 1020 10 16 0.00 0.00
1:15 pm 13:15 Sunny 88 31 66 19 49 49 ESE 3 6 30.11 1020 10 16 0.00 0.00
1:35 pm 13:35 Sunny 88 31 64 18 46 46 SSE 5 7 30.10 1019 10 16 0.00 0.00
1:55 pm 13:55 Sunny 88 31 64 18 46 46 SSE 9 15 30.08 1019 10 16 0.00 0.00
2:15 pm 14:15 Partly Cloudy 88 31 64 18 46 46 SSE 3 6 30.08 1019 10 16 0.00 0.00
2:35 pm 14:35 Partly Cloudy 90 32 64 18 43 43 SSE 3 6 30.07 1018 10 16 0.00 0.00
2:55 pm 14:55 Partly Cloudy 90 32 64 18 43 43 SSE 3 6 30.06 1018 10 16 0.00 0.00
3:15 pm 15:15 Mostly Cloudy 91 33 64 18 41 41 SW 5 7 30.05 1018 10 16 0.00 0.00
3:35 pm 15:35 Partly Cloudy 91 33 64 18 41 41 WSW 5 7 30.04 1017 10 16 0.00 0.00
3:55 pm 15:55 Partly Cloudy 91 33 64 18 41 41 W 7 11 30.04 1017 10 16 0.00 0.00
4:15 pm 16:15 Sunny 91 33 63 17 38 38 S 6 9 30.03 1017 10 16 0.00 0.00
4:35 pm 16:35 Sunny 90 32 64 18 43 43 S 8 13 30.04 1017 10 16 0.00 0.00
4:55 pm 16:55 Mostly Cloudy 90 32 64 18 43 43 SSW 8 13 30.04 1017 10 16 0.00 0.00
5:15 pm 17:15 Partly Cloudy 90 32 64 18 43 43 SSE 6 9 30.03 1017 10 16 0.00 0.00
5:35 pm 17:35 Partly Cloudy 90 32 64 18 43 43 S 10 17 30.03 1017 10 16 0.00 0.00
5:55 pm 17:55 Partly Cloudy 88 31 66 19 49 49 S 9 15 30.03 1017 10 16 0.00 0.00
6:15 pm 18:15 Sunny 88 31 66 19 49 49 S 6 9 30.03 1017 10 16 0.00 0.00
6:35 pm 18:35 Sunny 88 31 66 19 49 49 S 7 11 30.03 1017 10 16 0.00 0.00
6:55 pm 18:55 Sunny 86 30 66 19 52 52 SSE 5 7 30.03 1017 10 16 0.00 0.00
7:15 pm 19:15 Clear 86 30 66 19 52 52 S 8 13 30.03 1017 10 16 0.00 0.00
7:35 pm 19:35 Clear 86 30 66 19 52 52 SSE 6 9 30.03 1017 10 16 0.00 0.00
7:55 pm 19:55 Clear 84 29 68 20 58 58 SSE 6 9 30.03 1017 10 16 0.00 0.00
8:15 pm 20:15 Clear 82 28 68 20 62 62 S 6 9 30.03 1017 10 16 0.00 0.00
8:35 pm 20:35 Clear 81 27 68 20 66 66 S 3 6 30.03 1017 10 16 0.00 0.00
9:15 pm 21:15 Clear 79 26 68 20 70 70 SSW 3 6 30.03 1017 10 16 0.00 0.00
9:35 pm 21:35 Clear 79 26 68 20 70 70 SSW 3 6 30.03 1017 10 16 0.00 0.00
9:55 pm 21:55 Clear 77 25 68 20 74 74 S 3 6 30.03 1017 10 16 0.00 0.00
10:15 pm 22:15 Clear 77 25 68 20 74 74 S 5 7 30.03 1017 10 16 0.00 0.00
10:35 pm 22:35 Clear 75 24 68 20 78 78 SSW 6 9 30.03 1017 10 16 0.00 0.00
10:55 pm 22:55 Clear 77 25 68 20 74 74 SSW 5 7 30.02 1017 10 16 0.00 0.00
11:15 pm 23:15 Clear 75 24 68 20 78 78 S 3 6 30.02 1016 10 16 0.00 0.00
11:35 pm 23:35 Clear 73 23 68 20 83 83 S 5 7 30.02 1016 10 16 0.00 0.00
11:55 pm 23:55 Clear 73 23 68 20 83 83 S 6 9 30.02 1016 10 16 0.00 0.00

Powered by AerisWeather